Terminal Aerodrome Forecast
Issued by NWS

Home | Current Version | Previous Version | Text Only | Print | Product List | Glossary On
Versions: 1 2 3 4 5 6 7 8 9 10 11 12 13 14 15 16 17 18 19 20 21 22 23
000
FTUS45 KBOU 210005 AAA
TAFBJC
TAF AMD
KBJC 210005Z 2100/2124 33007KT P6SM VCSH SCT080 BKN140
      TEMPO 2100/2101 31012G22KT
     FM210400 30007KT P6SM FEW140 SCT220
     FM210700 34009KT P6SM FEW060 SCT080
     FM211200 36007KT P6SM SCT030 BKN040
     FM211600 06006KT P6SM FEW050 SCT090
     FM212000 14007KT P6SM SCT090 SCT150=

USA.gov is the U.S. government's official web portal to all federal, state and local government web resources and services.